Weather in Eastmain

Canada     52°14′37″N   78°30′26″W
temp.,
°C
wind,
m/s
gust,
m/s
humid.,
%
clouds,
%
prec.,
mm/h
press.,
hPa
HPBL,
m
27 january, wed
wed2701:00−13nnw2396100 0.6 102352
04:00−12wnw2496100 0.5 1024177
07:00−12wnw3596100 1.1 1025214
10:00−12wnw5795100 0.7 1025399
13:00−13w5694100 1.2 1024401
16:00−15w5794100 0.2 1025424
19:00−17w5895100 0.4 1026378
22:00−17w4795100 0.2 1026421
28 january, thu
thu2801:00−18wsw4795100 0.3 1025389
04:00−19wsw4896100 0.1 1025363
07:00−18wsw4796100 0.3 1025353
10:00−13wnw4694100 0.6 1024506
13:00−14nw6893100 1.0 1024603
16:00−15nw6892100 0.3 1024694
19:00−18nw5993100 0.4 1025512
22:00−19nw4896100 0.1 1026403
29 january, fri
fri2901:00−21nw4798100 0.1 1026290
04:00−22wnw3699100 0.1 1026174
07:00−23nw3699100 0.1 1027147
10:00−22nw3698100 0.1 1028324
13:00−21wnw3597100 0.1 1028350
16:00−22wnw3696100 0.0 1028253
19:00−24wnw239899 0.0 103024
22:00−25wnw239879 0.0 102920
30 january, sat
sat3001:00−26wnw129978 0.0 103019
04:00−27w129993 0.0 103119
07:00−27sw019997 0.0 103119
10:00−24s1197100 0.0 1032104
13:00−22sw229499 0.0 1032285
16:00−23w119598 0.0 103281
19:00−25ene119554 0.0 103319
22:00−26e11960 0.0 103319
31 january, sun
sun3101:00−26e11950 0.0 103319
04:00−26ene12930 0.0 103219
07:00−26ene11930 0.0 103319
10:00−23ne11920 0.0 103364
13:00−19nnw12907 0.0 1031247
16:00−19nw229767 0.0 103049
19:00−21nne229439 0.0 103020
22:00−22ene22920 0.0 103020